FW4734 Weather Reports


time (UTC)temp
C
wind
direction
speed
KPH
gust
KPH
rain 1hr
cm
rain 24hr
cm
rain mn
cm
humidity
%
barometer
mb
20260506144902 13 82 0.0 0.0 0.00 0.00 0.00 88 1021.0
20260506143902 12 101 0.0 0.0 0.00 0.00 0.00 89 1020.9
20260506142859 12 70 0.0 0.0 0.00 0.00 0.00 90 1020.9
20260506141900 12 76 0.0 0.0 0.00 0.00 0.00 90 1020.9
20260506141358 11 64 0.0 0.0 0.00 0.00 0.00 90 1020.8
20260506135857 11 86 0.0 0.0 0.00 0.00 0.00 91 1020.8
20260506134853 11 103 0.0 0.0 0.00 0.00 0.00 91 1020.8
20260506133853 11 103 0.0 0.0 0.00 0.00 0.00 91 1020.6
20260506132852 10 84 0.0 0.0 0.00 0.00 0.00 91 1020.4
20260506131853 10 95 0.0 0.0 0.00 0.00 0.00 91 1020.3
20260506130852 10 91 0.0 0.0 0.00 0.00 0.00 91 1020.3
20260506125852 10 100 0.0 0.0 0.00 0.00 0.00 91 1020.3
20260506124852 10 89 0.0 0.0 0.00 0.00 0.00 91 1020.1
20260506123851 10 86 0.0 0.0 0.00 0.00 0.00 91 1020.0
20260506122847 10 86 0.0 0.0 0.00 0.00 0.00 91 1019.8
20260506121847 11 86 0.0 0.0 0.00 0.00 0.00 91 1019.9
20260506121349 11 86 0.0 0.0 0.00 0.00 0.00 91 1019.9
20260506115843 11 86 0.0 0.0 0.00 0.00 0.00 91 1019.7
20260506114844 11 86 0.0 0.0 0.00 0.00 0.00 91 1019.6
20260506113843 11 86 0.0 0.0 0.00 0.00 0.00 91 1019.7
20260506112839 11 96 0.0 0.0 0.00 0.00 0.00 91 1019.5
20260506111839 11 80 0.0 0.0 0.00 0.00 0.00 90 1019.6
20260506110840 11 83 0.0 0.0 0.00 0.00 0.00 90 1019.5
20260506105840 11 92 0.0 0.0 0.00 0.00 0.00 90 1019.5
20260506104837 11 88 0.0 0.0 0.00 0.00 0.00 90 1019.5
20260506103835 11 86 0.0 0.0 0.00 0.00 0.00 90 1019.4
20260506102835 11 95 0.0 0.0 0.00 0.00 0.00 90 1019.3
20260506102334 11 76 0.0 0.0 0.00 0.00 0.00 90 1019.2
20260506100827 11 82 0.0 0.0 0.00 0.00 0.00 89 1019.1
20260506095825 11 84 0.0 0.0 0.00 0.00 0.00 90 1018.9
20260506094825 11 91 0.0 0.0 0.00 0.00 0.00 90 1019.0
20260506093822 11 86 0.0 0.0 0.00 0.00 0.00 89 1019.1
20260506092819 12 96 0.0 0.0 0.00 0.00 0.00 89 1019.1
20260506092319 12 82 0.0 0.0 0.00 0.00 0.00 89 1019.1
20260506090814 12 92 0.0 0.0 0.00 0.00 0.00 88 1019.2
20260506090311 12 100 0.0 0.0 0.00 0.00 0.00 88 1019.2
20260506084811 12 96 0.0 0.0 0.00 0.00 0.00 88 1019.1
20260506083811 12 77 0.0 0.0 0.00 0.00 0.00 87 1019.1
20260506082811 12 84 0.0 0.0 0.00 0.00 0.00 88 1019.1
20260506082311 12 89 0.0 0.0 0.00 0.00 0.00 87 1019.1
20260506080809 12 85 0.0 0.0 0.00 0.00 0.00 87 1019.0
20260506072802 13 84 0.0 0.0 0.00 0.00 0.00 84 1018.8
20260506071759 13 87 0.0 0.0 0.00 0.00 0.00 84 1018.6
20260506071300 13 92 0.0 0.0 0.00 0.00 0.00 84 1018.5
20260506061753 14 88 0.0 0.0 0.00 0.00 0.00 80 1017.8
20260506061255 14 94 0.0 0.0 0.00 0.00 0.00 80 1017.7
20260506060253 14 74 0.0 0.0 0.00 0.00 0.00 80 1017.6
20260506050741 15 86 0.0 0.0 0.00 0.00 0.00 77 1017.3
20260506044738 15 89 0.0 0.0 0.00 0.00 0.00 75 1017.1
20260506043735 15 95 0.0 0.0 0.00 0.00 0.00 75 1016.9
20260506042734 15 95 0.0 0.0 0.00 0.00 0.00 74 1016.8
20260506041732 15 92 0.0 0.0 0.00 0.00 0.00 73 1016.7
20260506040729 15 92 0.0 0.0 0.00 0.00 0.00 72 1016.8
20260506035727 16 92 0.0 0.0 0.00 0.00 0.00 71 1016.5
20260506034726 16 92 0.0 0.0 0.00 0.00 0.00 70 1016.5
20260506033726 16 90 0.0 0.0 0.00 0.00 0.00 69 1016.4
20260506032727 16 90 0.0 0.0 0.00 0.00 0.00 68 1016.3
20260506031727 17 90 0.0 0.0 0.00 0.00 0.00 67 1016.1
20260506030725 17 90 0.0 0.0 0.00 0.00 0.00 66 1016.1
20260506030222 17 100 0.0 0.0 0.00 0.00 0.00 65 1015.9
20260506024721 18 83 0.0 0.0 0.00 0.00 0.00 63 1015.7
20260506023719 18 82 0.0 0.0 0.00 0.00 0.00 62 1015.5
20260506022715 18 96 0.0 0.0 0.00 0.00 0.00 61 1015.5
20260506021714 19 85 0.0 0.0 0.00 0.00 0.00 60 1015.4
20260506020712 19 74 0.0 0.0 0.00 0.00 0.00 59 1015.4
20260506020213 20 96 0.0 0.0 0.00 0.00 0.00 58 1015.2
20260506014712 20 111 0.0 0.0 0.00 0.00 0.00 57 1015.2
20260506013712 20 94 0.0 0.0 0.00 0.00 0.00 57 1015.2
20260506012711 21 80 0.0 0.0 0.00 0.00 0.00 55 1015.1
20260506011711 21 86 0.0 0.0 0.00 0.00 0.00 55 1015.1
20260506010711 20 66 0.0 0.0 0.00 0.00 0.00 56 1015.1
20260506005710 20 79 0.0 0.0 0.00 0.00 0.00 56 1015.0
20260506004711 20 63 0.0 0.0 0.00 0.00 0.00 56 1014.9
20260506003711 20 69 0.0 0.0 0.00 0.00 0.00 55 1015.0
20260506003707 21 76 0.0 0.0 0.00 0.00 0.00 55 1015.0
20260506003313 21 80 0.0 0.0 0.00 0.00 0.00 55 1015.0
20260506000705 21 322 0.0 0.0 0.00 0.00 0.00 54 1014.9
20260505235705 21 52 0.0 0.0 0.00 0.00 0.00 54 1014.9
20260505234705 21 64 0.0 0.0 0.00 0.00 0.00 52 1015.1
20260505233705 21 50 0.0 0.0 0.00 0.00 0.00 53 1015.0
20260505232704 21 107 0.0 0.0 0.00 0.00 0.00 53 1015.2
20260505231704 21 25 0.0 0.0 0.00 0.00 0.00 52 1015.2
20260505230701 21 75 0.0 0.0 0.00 0.00 0.00 53 1015.2
20260505225700 21 69 0.0 0.0 0.00 0.00 0.00 52 1015.2
20260505225201 20 95 0.0 0.0 0.00 0.00 0.00 53 1015.3
20260505224158 21 117 0.0 0.0 0.00 0.00 0.00 52 1015.3
20260505222701 21 75 0.0 0.0 0.00 0.00 0.00 52 1015.4
20260505222657 21 91 0.0 0.0 0.00 0.00 0.00 51 1015.3
20260505221153 21 103 0.0 0.0 0.00 0.00 0.00 52 1015.5
20260505215652 21 65 0.0 0.0 0.00 0.00 0.00 51 1015.5
20260505214652 21 286 0.0 0.0 0.00 0.00 0.00 52 1015.6
20260505214149 21 58 0.0 0.0 0.00 0.00 0.00 52 1015.6
20260505213753 21 100 0.0 0.0 0.00 0.00 0.00 53 1015.6
20260505211649 20 27 0.0 0.0 0.00 0.00 0.00 52 1015.6
20260505210649 20 131 0.0 0.0 0.00 0.00 0.00 54 1015.7
20260505210645 20 68 0.0 0.0 0.00 0.00 0.00 55 1015.7
20260505205142 19 315 0.0 0.0 0.00 0.00 0.00 59 1015.7
20260505203638 20 91 0.0 0.0 0.00 0.00 0.00 56 1015.8
20260505202639 20 88 0.0 0.0 0.00 0.00 0.00 56 1015.6
20260505201636 20 83 0.0 0.0 0.00 0.00 0.00 58 1015.9
20260505200636 19 323 0.0 0.0 0.00 0.00 0.00 61 1015.9
20260505195635 19 68 0.0 0.0 0.00 0.00 0.00 61 1016.0
20260505194634 18 59 0.0 0.0 0.00 0.00 0.00 60 1016.2
20260505193631 18 84 0.0 0.0 0.00 0.00 0.00 62 1016.4
20260505192633 18 68 0.0 0.0 0.00 0.00 0.00 66 1016.4
20260505191632 17 349 0.0 0.0 0.00 0.00 0.00 66 1016.4
20260505190632 17 68 0.0 0.0 0.00 0.00 0.00 66 1016.5
20260505190130 17 97 0.0 0.0 0.00 0.00 0.00 68 1016.6
20260505184628 16 73 0.0 0.0 0.00 0.00 0.00 70 1016.6
20260505184125 16 77 0.0 0.0 0.00 0.00 0.00 70 1016.6
20260505182625 16 124 0.0 0.0 0.00 0.00 0.00 71 1016.6
20260505181624 16 63 0.0 0.0 0.00 0.00 0.00 71 1016.4
20260505180624 15 64 0.0 0.0 0.00 0.00 0.00 73 1016.4
20260505175624 15 89 0.0 0.0 0.00 0.00 0.00 75 1016.4
20260505174625 15 63 0.0 0.0 0.00 0.00 0.00 75 1016.4
20260505173617 15 104 0.0 0.0 0.00 0.00 0.00 76 1016.3
20260505172618 15 96 0.0 0.0 0.00 0.00 0.00 75 1016.3
20260505171618 15 87 0.0 0.0 0.00 0.00 0.00 76 1016.3
20260505170611 15 82 0.0 0.0 0.00 0.00 0.00 76 1016.1
20260505165612 14 108 0.0 0.0 0.00 0.00 0.00 79 1016.1
20260505164612 14 98 0.0 0.0 0.00 0.00 0.00 79 1016.1
20260505163608 13 120 0.0 0.0 0.00 0.00 0.00 80 1016.2
20260505162605 13 109 0.0 0.0 0.00 0.00 0.00 80 1016.1
20260505162106 13 67 0.0 0.0 0.00 0.00 0.00 80 1016.0
20260505160602 13 91 0.0 0.0 0.00 0.00 0.00 81 1015.8
20260505152553 13 99 0.0 0.0 0.00 0.00 0.00 82 1015.7
20260505152054 13 120 0.0 0.0 0.00 0.00 0.00 83 1015.5
20260505151052 13 82 0.0 0.0 0.00 0.00 0.00 82 1015.3